Location: Potawatomi Wildlife Park
(41.2308°N, 86.1050°W)
Time: 00:10:19
(UTC-04:00)

Daily predictions for brighter satellites

Satellite Brightness Start Highest point End
(mag) Time Altitude Azimuth Time Altitude Azimuth Time Altitude Azimuth
Cosmos 1709 Rocket 3.9 00:11:06 10° N 00:17:22 80° E 00:19:27 45° SSE
SL-14 R/B 4.0 00:19:42 40° WSW 00:20:26 46° WNW 00:24:13 10° N
ALOS 2 4.2 00:20:27 23° E 00:21:08 24° ENE 00:24:37 10° NNE
Cosmos 2278 Rocket 2.1 00:20:26 36° SSW 00:22:51 85° WNW 00:28:33 10° NNE
NOSS 3-4 (A) 3.3 00:20:16 35° SSW 00:22:59 76° ESE 00:29:23 10° NE
NOSS 3-4 (C) 3.3 00:20:26 36° SSW 00:23:04 75° ESE 00:29:28 10° NE
NOSS 2-2 (E) 3.9 00:24:27 44° ENE 00:24:27 44° ENE 00:27:47 10° NE
Aureole 3 Rocket 4.3 00:23:27 36° S 00:27:10 81° E 00:33:23 10° N
COSMOS 2406 4.0 00:23:39 10° NW 00:29:00 41° WSW 00:30:39 33° SW
Cosmos 1726 4.5 00:29:45 10° NW 00:32:02 16° W 00:32:56 14° WSW
Cosmos 1461 3.1 00:34:20 57° SW 00:35:15 81° WNW 00:40:03 10° NNE
CENTAUR R/B 3.7 00:28:21 10° NNW 00:36:04 53° NE 00:41:25 23° ESE
Cosmos 1766 Rocket 3.7 00:37:40 60° E 00:37:40 60° E 00:42:00 10° NNE
Cosmos 1408 Rocket 4.0 00:40:10 50° E 00:40:10 50° E 00:44:17 10° NNE
Cosmos 405 Rocket 4.5 00:38:50 10° NNE 00:41:21 22° ENE 00:41:21 22° ENE
ADEOS Rocket 3.5 00:36:24 10° NNE 00:42:04 44° E 00:43:06 41° SE
SL-8 R/B 4.5 00:37:44 10° W 00:42:28 53° NNW 00:47:13 10° ENE
COBE Rocket 4.1 00:38:48 10° N 00:43:50 73° WNW 00:45:03 51° SW
Cosmos 2315 Rocket 4.2 00:41:44 38° SSW 00:44:14 67° W 00:50:34 10° N
USA 234 3.8 00:40:33 10° ENE 00:46:17 36° ESE 00:46:17 36° ESE
Cosmos 1076 Rocket 4.0 00:46:47 47° WSW 00:47:14 50° W 00:51:23 10° N
Cosmos 1151 Rocket 4.3 00:45:24 10° NNE 00:49:07 29° ENE 00:49:07 29° ENE
RESURS DK-1 3.3 00:50:15 39° ENE 00:50:15 39° ENE 00:53:13 10° NE
Cosmos 1703 3.5 00:50:17 66° NNE 00:50:17 66° NNE 00:53:41 10° N
SL-27 R/B 3.5 00:46:42 10° N 00:49:37 43° NNE 00:49:37 43° NNE
Meteor 1-27 4.3 00:46:03 10° N 00:51:55 76° E 00:53:08 56° SSE
NOSS 2-2 (D) 3.5 00:53:56 69° NNE 00:53:56 69° NNE 00:57:48 10° NE
H-2A R/B 4.2 00:49:48 33° SSW 00:53:44 44° SSE 02:08:46 10° E
H-2A R/B 3.2 00:53:56 30° ENE 00:54:01 30° ENE 00:57:37 10° N
Cosmos 2369 Rocket 4.3 00:55:50 13° E 00:55:50 13° E 00:57:54 10° ENE
Okean 3 Rocket 4.3 00:59:48 41° W 01:00:20 42° WNW 01:04:31 10° N
Cosmos 2297 3.6 01:01:31 63° S 01:02:22 78° ESE 01:08:06 10° NNE
Meteor 2-10 Rocket 4.3 00:59:27 10° N 01:04:14 38° ENE 01:05:02 36° E
Cosmos 2184 Rocket 4.0 00:58:11 10° N 01:04:33 76° E 01:06:02 54° SSE
Terra 4.1 01:06:06 13° WSW 01:07:18 14° W 01:09:45 10° WNW
Mayak -1.1 01:03:57 10° NNE 01:07:41 69° NE 01:07:41 69° NE
Cosmos 2228 Rocket 3.7 01:04:22 10° N 01:08:37 46° ENE 01:08:37 46° ENE
Cosmos 2082 Rocket 2.1 01:05:26 10° NNW 01:11:11 85° WSW 01:12:02 66° SSE
ATLAS 5 CENTAUR R/B 2.0 01:14:00 53° W 01:14:44 61° NW 01:19:37 10° NNE
ATLAS 3B R/B 3.5 01:09:38 10° NW 01:15:16 31° WSW 01:16:10 30° SW
SL-19 R/B 4.3 01:11:00 10° N 01:16:30 68° WNW 01:17:38 53° SW
NOSS 2-2 (C) 4.1 01:19:17 45° WNW 01:19:37 46° NW 01:23:51 10° NNE
Cosmos 2151 3.1 01:20:45 71° NNE 01:20:45 71° NNE 01:24:35 10° N
Cosmos 1833 Rocket 2.7 01:14:54 10° NNW 01:20:27 63° WSW 01:20:59 60° SW
CZ-4C R/B 3.7 01:24:27 65° NNW 01:24:27 65° NNW 01:27:49 10° NNW
Cosmos 1743 Rocket 3.6 01:31:37 76° N 01:31:37 76° N 01:35:41 10° N
Cosmos 1328 Rocket 3.9 01:27:44 10° NNW 01:31:39 58° WNW 01:31:39 58° WNW
Cosmos 1455 3.9 01:34:18 10° NNW 01:36:45 26° WNW 01:36:45 26° WNW
CZ-4B R/B 3.5 01:33:30 10° N 01:38:48 78° WNW 01:39:27 67° SW
Cosmos 2058 3.8 01:42:06 40° WNW 01:42:06 40° WNW 01:45:48 10° N
Cosmos 1943 Rocket 3.4 01:45:58 26° ESE 01:46:02 26° ESE 01:50:35 10° NE
COSMOS 2487 4.1 01:43:36 10° N 01:46:11 31° NE 01:46:11 31° NE
BREEZE-M R/B 4.3 01:41:26 10° WNW 01:47:04 65° SW 01:48:58 46° SSE
Meteor 2-16 Rocket 4.4 01:42:28 10° N 01:48:39 83° E 01:49:53 59° SSE
Nadezhda 1 Rocket 4.2 01:50:33 48° SW 01:52:10 62° W 01:58:32 10° N
MOS 1 Rocket 4.1 01:47:41 10° NNE 01:52:22 40° E 01:52:22 40° E
Cosmos 1892 4.3 01:56:16 26° ENE 01:56:16 26° ENE 01:58:46 10° NNE
Cosmos 1140 Rocket 3.4 01:55:35 71° ESE 01:55:43 72° ESE 02:00:51 10° NNE
ALOS 2 3.9 01:57:50 30° W 01:57:50 30° W 02:01:13 10° NNW
Cosmos 1500 Rocket 3.9 01:57:54 54° WNW 01:57:54 54° WNW 02:01:55 10° N
Cosmos 676 Rocket 3.8 01:58:15 79° S 01:58:34 86° ESE 02:03:46 10° NNE
Cosmos 1954 Rocket 3.8 01:58:39 74° SE 01:58:51 75° ESE 02:04:02 10° NNE
Meteor 2-21 Rocket 4.5 01:58:15 10° NNW 02:04:13 62° W 02:05:12 54° SW
Cosmos 1707 Rocket 4.5 02:00:43 10° N 02:04:51 38° ENE 02:05:04 38° E
Cosmos 407 Rocket 4.0 02:05:41 43° W 02:06:34 48° WNW 02:11:34 10° N
Cosmos 614 Rocket 3.8 02:06:25 77° SW 02:06:48 86° WNW 02:11:58 10° NNE
Cosmos 1633 Rocket 4.3 02:08:39 31° E 02:08:39 31° E 02:12:34 10° NNE
Cosmos 304 Rocket 4.3 02:19:53 10° N 02:24:34 52° ENE 02:25:32 44° ESE
SL-24 R/B 4.4 02:20:50 10° NNE 02:25:43 84° ESE 02:26:24 69° S
CENTAUR R/B 3.6 02:19:16 10° NW 02:26:50 43° WSW 02:28:33 39° SW
Meteor 2-3 Rocket 4.4 02:25:50 38° SE 02:27:11 44° E 02:32:38 10° NNE
PSLV R/B 3.8 02:22:29 10° NNE 02:27:13 71° E 02:27:27 69° SE
ADEOS Rocket 4.4 02:22:27 10° N 02:27:23 29° WNW 02:30:03 21° WSW
USA 234 3.5 02:23:15 10° NE 02:29:44 65° NW 02:33:36 26° WSW
H-2A R/B 3.9 02:31:02 19° WNW 02:31:02 19° WNW 02:33:10 10° NW
Cosmos 1666 Rocket 3.6 02:31:34 69° E 02:31:34 69° E 02:35:47 10° NNE
Resurs 1-4 Rocket 4.2 02:28:20 10° NE 02:31:29 16° E 02:33:30 13° ESE
Cosmos 371 Rocket 3.9 02:29:23 10° NNW 02:33:37 44° W 02:33:37 44° W
Cosmos 2369 Rocket 2.1 02:37:37 60° SW 02:38:42 84° WNW 02:44:24 10° NNE
Cosmos 1689 Rocket 4.4 02:41:36 22° ENE 02:41:36 22° ENE 02:43:49 10° NNE
Cosmos 1850 Rocket 3.8 02:40:46 67° S 02:41:25 80° ESE 02:46:40 10° NNE
BREEZE-M DEB (TANK) 4.0 02:42:16 44° SSW 02:44:10 58° SSE 02:47:35 10° ENE
GP-B 4.2 02:48:16 10° NNE 02:52:22 35° E 02:53:22 31° ESE
Lacrosse 4 Rocket 3.2 02:52:46 22° ESE 02:52:56 22° ESE 02:56:23 10° NE
Cosmos 2098 Rocket 4.4 02:46:46 10° NNW 02:54:09 62° W 02:56:16 44° SSW
Cosmos 2082 Rocket 4.4 02:53:04 10° W 02:53:52 11° W 02:53:52 11° W
Cosmos 2242 Rocket 4.1 02:52:45 10° N 02:57:10 53° E 02:58:04 45° ESE
ATLAS 5 CENTAUR R/B 4.5 02:58:26 10° NW 03:00:34 13° NNW 03:02:48 10° N
Cosmos 1606 3.3 03:01:27 10° N 03:05:10 48° E 03:05:33 46° E
Cosmos 1825 2.3 03:07:42 67° E 03:07:42 67° E 03:11:23 10° NNE
Cosmos 405 3.2 03:15:32 66° NNW 03:15:32 66° NNW 03:18:43 10° N
Cosmos 2263 4.4 03:13:30 42° WSW 03:15:10 59° WNW 03:20:44 10° NNE
Cosmos 1656 Rocket 3.9 03:14:34 43° S 03:16:15 63° ESE 03:21:50 10° NNE
Cosmos 1408 2.6 03:18:49 69° WNW 03:18:49 69° WNW 03:22:22 10° N
CZ-4B R/B 2.1 03:20:24 44° NNW 03:20:24 44° NNW 03:22:40 10° NNW
Cosmos 2218 Rocket 4.5 03:15:50 10° NNW 03:21:37 44° W 03:23:15 36° SW
Cosmos 1867 4.2 03:20:08 35° SSE 03:21:38 44° ESE 03:26:47 10° NE
BREEZE-M DEB (TANK) 3.8 03:19:53 10° NW 03:21:53 29° NNE 03:24:53 10° E
Cosmos 1833 4.1 03:19:16 10° NNW 03:24:53 89° NE 03:27:45 30° SSE
Sich 1 4.4 03:26:45 25° W 03:27:10 25° WNW 03:30:50 10° NNW
Spot 2 4.0 03:23:43 10° N 03:28:05 67° WNW 03:28:44 57° WSW
NPP 3.7 03:23:46 10° NNE 03:29:10 73° ESE 03:31:12 39° S
Cosmos 1943 Rocket 2.9 03:27:29 31° WSW 03:29:30 43° WNW 03:34:49 10° NNE
Cosmos 1862 Rocket 3.6 03:26:51 10° NNW 03:31:19 67° W 03:32:05 55° SSW
Cosmos 2208 Rocket 4.2 03:29:42 10° NNW 03:34:59 57° WSW 03:36:31 42° SSW
Cosmos 1818 3.7 03:29:48 10° NNW 03:35:18 78° ENE 03:40:39 11° SE
Cosmos 841 Rocket 4.2 03:30:19 10° N 03:35:25 52° ENE 03:40:09 12° SE
CZ-2D R/B 2.3 03:34:23 10° NNE 03:39:41 64° ESE 03:42:08 32° S
AQUA 3.9 03:35:26 10° NNE 03:40:13 74° ESE 03:41:55 39° S
Cosmos 1782 2.6 03:36:24 10° N 03:40:22 80° W 03:41:03 59° S
Cosmos 468 Rocket 4.0 03:38:14 10° NNW 03:43:16 57° WSW 03:44:48 40° SSW
ADEOS II 4.4 03:40:09 10° NE 03:43:20 16° E 03:46:31 10° SE
Okean 1-7 4.0 03:40:46 10° N 03:44:59 44° ENE 03:47:59 18° SE
Meteor 1-10 Rocket 4.2 03:40:53 10° N 03:46:30 85° E 03:49:55 25° SSE
IRS-1D 3.8 03:42:33 10° NNE 03:47:39 60° E 03:50:08 29° S
Meteor 1-27 Rocket 4.4 03:43:24 10° N 03:49:05 54° ENE 03:54:47 10° SSE
Cosmos 2219 4.5 03:45:15 10° N 03:50:35 40° ENE 03:55:51 10° SE
SL-16 R/B 2.4 03:46:32 23° SSE 03:50:36 84° WSW 03:56:49 10° NNW
IRS-P3 4.1 03:46:02 10° NNE 03:51:24 81° WNW 03:53:46 34° SSW
PSLV R/B 3.1 03:52:36 67° E 03:52:36 67° E 03:55:13 10° E
Cosmos 1470 Rocket 4.4 03:51:26 32° WSW 03:52:24 36° WNW 03:56:33 10° N
H-2A R/B 2.3 03:50:26 10° NNE 03:54:27 82° ESE 03:55:37 44° S
UNK 3.7 03:55:00 34° S 03:57:02 73° WSW 04:01:42 10° NNW
Meteor 1-4 Rocket 4.0 03:56:02 20° SE 03:57:46 31° E 04:01:04 10° NNE
Cosmos 1535 Rocket 4.4 03:54:25 10° N 04:00:34 87° W 04:04:57 20° S
PSLV R/B 4.4 03:58:15 18° SSE 04:01:17 61° ENE 04:05:27 10° N
SL-24 DEB 4.2 04:00:14 34° S 04:02:13 72° W 04:06:51 10° N
Nadezhda 3 Rocket 4.4 04:00:36 29° SW 04:03:39 50° WNW 04:09:49 10° N
Cosmos 1605 Rocket 4.4 03:58:32 10° N 04:04:34 60° E 04:10:37 10° SSE
Cosmos 1486 Rocket 4.0 04:03:11 30° SSW 04:05:50 85° ESE 04:11:12 10° NNE
Resurs 1-4 Rocket 2.2 04:06:28 10° N 04:11:46 65° WNW 04:14:35 28° SSW
Cosmos 1862 3.3 04:12:47 37° SSW 04:14:12 65° W 04:18:09 10° N
Cosmos 2297 Rocket 4.3 04:14:00 10° N 04:18:50 28° NE 04:23:38 10° ESE
Meteor 2-17 Rocket 4.5 04:13:18 10° NNW 04:19:21 65° W 04:23:48 19° S
Cosmos 44 3.8 04:17:36 23° S 04:20:11 50° ESE 04:24:56 10° NE
BREEZE M DEB (TANK) 4.4 04:16:35 10° WNW 04:20:29 22° NNW 04:22:36 10° NE
Cosmos 1934 Rocket 4.0 04:16:01 10° NNW 04:22:19 67° W 04:27:12 17° S
Cosmos 2369 Rocket 4.4 04:20:36 10° W 04:23:37 14° NW 04:26:39 10° NNW
Cosmos 389 Rocket 4.3 04:21:40 11° SSE 04:24:42 28° E 04:27:53 10° NNE
Cosmos 2227 Rocket 3.9 04:21:59 10° N 04:27:11 35° ENE 04:32:21 10° ESE
ATLAS CENTAUR Rocket 3.6 04:26:13 15° S 04:27:16 16° SSE 04:30:54 10° ESE
COSMOS 2455 2.8 04:23:54 10° NNW 04:29:55 77° WSW 04:35:55 10° SSE
Lacrosse 4 Rocket 2.5 04:29:05 21° WSW 04:31:24 36° NW 04:35:33 10° NNE
Cosmos 1503 Rocket 4.0 04:28:22 20° S 04:31:58 77° ESE 04:37:09 10° NNE
UNKNOWN OBJECT B 3.0 04:33:48 10° NNE 04:37:47 72° E 04:40:54 16° S
Cosmos 292 Rocket 4.5 04:34:33 10° NW 04:38:55 35° WSW 04:41:36 20° SSW
Delta 2 Rocket 4.0 04:37:15 23° SW 04:39:35 42° S 04:44:15 10° ESE
ARIANE 5 R/B 2.6 04:35:27 10° N 04:40:21 59° WNW 04:43:49 19° SSW
SL-08 R/B 4.4 04:39:48 21° SW 04:41:42 27° W 04:45:41 10° NW
Cosmos 2221 Rocket 3.7 04:38:44 10° NNW 04:43:05 56° W 04:46:36 15° S
ATLAS CENTAUR R/B 2.1 04:45:54 15° S 04:48:39 41° ESE 04:52:23 10° NE
CZ-2D R/B 3.4 04:44:30 10° N 04:48:47 82° WNW 04:52:07 16° SSW
Cosmos 1633 2.7 04:46:49 14° S 04:49:51 72° E 04:53:28 10° NNE
Cosmos 1869 Rocket 4.5 04:47:55 19° SW 04:50:18 32° WNW 04:54:15 10° NNW
BREEZE-M DEB (TANK) 3.8 04:49:52 10° WNW 04:55:13 46° N 04:58:00 10° E
ASTEX 1 3.8 04:51:57 10° SSE 04:56:55 68° E 05:01:53 10° N
Cosmos 1727 Rocket 4.0 04:51:33 12° SSW 04:57:15 70° W 05:03:31 10° N
Cosmos 374 Rocket 4.4 04:54:46 10° NW 04:59:35 84° SW 05:03:30 10° SSE
Cosmos 1656 4.4 04:54:10 10° S 04:59:38 51° ESE 05:05:08 10° NNE
Cosmos 2173 Rocket 4.4 04:54:42 10° N 05:00:46 63° E 05:06:47 10° SSE
Meteor 1-25 Rocket 4.5 04:57:26 10° S 05:02:57 70° E 05:08:28 10° NNE
ADEOS 3.6 04:58:20 10° N 05:03:33 71° WNW 05:08:37 11° SSW
Cosmos 540 Rocket 4.0 05:02:04 10° NW 05:06:48 38° WSW 05:11:29 10° S
Centaur D AC-28 4.4 04:58:30 10° W 05:07:39 19° SW 05:11:48 10° S
Cosmos 1437 Rocket 4.3 05:05:20 14° WSW 05:07:50 23° WNW 05:11:08 10° NNW
Helios 1A Rocket 3.4 05:12:04 10° N 05:15:56 45° WNW 05:19:42 11° SW
Cosmos 1812 3.1 05:12:54 10° NNW 05:16:38 46° W 05:20:20 10° SSW
Lacrosse 5 3.7 05:13:31 10° NNW 05:18:11 36° NE 05:22:50 10° E
ATLAS 2A CENTAUR R/B 4.1 05:11:50 11° SW 05:18:45 22° S 05:23:15 10° SE
CZ-2D R/B 3.9 05:15:48 10° NNW 05:19:12 18° WNW 05:22:39 10° WSW
Cosmos 1697 Rocket 3.5 05:17:02 10° S 05:22:28 50° ESE 05:27:56 10° NE
NOSS 3-1 (C) 4.1 05:15:06 10° NW 05:22:48 85° WSW 05:31:22 10° SSE
ADEOS II 2.2 05:18:15 10° N 05:23:28 62° WNW 05:28:38 10° SSW
USA 81 4.1 05:21:08 10° SSW 05:26:21 69° W 05:31:38 10° N
CZ-4B R/B 4.3 05:23:48 10° NNE 05:27:39 40° E 05:31:40 10° S
PSLV R/B 3.2 05:25:46 10° W 05:28:39 47° SSW 05:31:31 10° ESE
Cosmos 2016 Rocket 4.3 05:22:36 10° N 05:29:00 75° E 05:35:20 10° SSE
Cosmos 1378 Rocket 3.8 05:27:04 10° N 05:31:31 80° E 05:35:58 10° S
Okean 3 3.5 05:28:02 10° NNW 05:32:11 62° W 05:36:19 10° S
Cosmos 1802 Rocket 4.0 05:26:49 10° N 05:33:07 86° W 05:39:17 10° S
Cosmos 2219 4.1 05:29:45 10° NW 05:34:32 29° WSW 05:39:16 10° SSW
SL-16 R/B 4.3 05:33:00 10° WSW 05:35:04 12° W 05:37:07 10° WNW
Cosmos 2369 3.7 05:30:31 10° SSW 05:36:09 82° WNW 05:41:51 10° NNE
Cosmos 2061 Rocket 4.0 05:30:27 10° N 05:36:41 82° W 05:42:57 10° S
Cosmos 1733 Rocket 3.9 05:35:19 10° SW 05:39:13 33° WNW 05:43:08 10° NNW
Milstar 3 Cent rocket 4.1 05:32:17 10° WSW 05:45:16 39° S 05:52:01 10° ESE
